"Sample Date","Sample Time","Sample Value","Units","Flow Rate","Sample Interval","Number Channels","Micron Size 0","Counts/Channel 0","Micron Size 1","Counts/Channel 1","Micron Size 2","Counts/Channel 2","Micron Size 3","Counts/Channel 3","Micron Size 4","Counts/Channel 4","Micron Size 5","Counts/Channel 5","Micron Size 6","Counts/Channel 6","Micron Size 7","Counts/Channel 7","Micron Size 8","Counts/Channel 8","Micron Size 9","Counts/Channel 9","Micron Size 10","Counts/Channel 10","Micron Size 11","Counts/Channel 11","Micron Size 12","Counts/Channel 12","Micron Size 13","Counts/Channel 13","Micron Size 14","Counts/Channel 14","Micron Size 15","Counts/Channel 15","Micron Size 16","Counts/Channel 16","Micron Size 17","Counts/Channel 17","Micron Size 18","Counts/Channel 18","Micron Size 19","Counts/Channel 19","Micron Size 20","Counts/Channel 20","Micron Size 21","Counts/Channel 21","Micron Size 22","Counts/Channel 22","Micron Size 23","Counts/Channel 23","Micron Size 24","Counts/Channel 24","Micron Size 25","Counts/Channel 25","Micron Size 26","Counts/Channel 26","Micron Size 27","Counts/Channel 27","Micron Size 28","Counts/Channel 28","Micron Size 29","Counts/Channel 29","Micron Size 30","Counts/Channel 30","Micron Size 31","Counts/Channel 31"
"04/03/08","09:00:03",22272.000,"cc",28229.926,6.00,6,0.100,14962.000,0.200,3701.000,0.300,1678.000,0.500,1518.000,1.000,413.000,5.000,0
"04/03/08","09:00:09",21414.000,"cc",28369.326,6.00,6,0.100,14614.000,0.200,3426.000,0.300,1553.000,0.500,1409.000,1.000,412.000,5.000,0
"04/03/08","09:00:15",21049.000,"cc",28288.574,6.00,6,0.100,14396.000,0.200,3410.000,0.300,1520.000,0.500,1333.000,1.000,390.000,5.000,0
"04/03/08","09:00:21",21648.000,"cc",28349.184,6.00,6,0.100,14791.000,0.200,3464.000,0.300,1524.000,0.500,1453.000,1.000,416.000,5.000,0
"04/03/08","09:00:27",20934.000,"cc",28391.158,6.00,6,0.100,14390.000,0.200,3239.000,0.300,1534.000,0.500,1357.000,1.000,414.000,5.000,0
"04/03/08","09:00:33",21176.000,"cc",28311.647,6.00,6,0.100,14518.000,0.200,3375.000,0.300,1520.000,0.500,1348.000,1.000,415.000,5.000,0
"04/03/08","09:00:39",21749.000,"cc",28281.348,6.00,6,0.100,14859.000,0.200,3523.000,0.300,1484.000,0.500,1456.000,1.000,427.000,5.000,0
"04/03/08","09:00:45",21751.000,"cc",28304.492,6.00,6,0.100,14777.000,0.200,3468.000,0.300,1613.000,0.500,1472.000,1.000,421.000,5.000,0
"04/03/08","09:00:51",21773.000,"cc",28327.842,6.00,6,0.100,14932.000,0.200,3433.000,0.300,1559.000,0.500,1439.000,1.000,410.000,5.000,0
"04/03/08","09:00:57",21665.000,"cc",28311.172,6.00,6,0.100,14686.000,0.200,3452.000,0.300,1694.000,0.500,1441.000,1.000,392.000,5.000,0
"04/03/08","09:01:03",21567.000,"cc",28313.584,6.00,6,0.100,14510.000,0.200,3618.000,0.300,1609.000,0.500,1401.000,1.000,429.000,5.000,0
"04/03/08","09:01:09",21300.000,"cc",28301.254,6.00,6,0.100,14553.000,0.200,3383.000,0.300,1510.000,0.500,1437.000,1.000,417.000,5.000,0
"04/03/08","09:01:15",21669.000,"cc",28304.106,6.00,6,0.100,14863.000,0.200,3433.000,0.300,1525.000,0.500,1466.000,1.000,382.000,5.000,0
"04/03/08","09:01:21",22194.000,"cc",28286.600,6.00,6,0.100,15178.000,0.200,3525.000,0.300,1591.000,0.500,1464.000,1.000,436.000,5.000,0
"04/03/08","09:01:27",21688.000,"cc",28313.756,6.00,6,0.100,14688.000,0.200,3494.000,0.300,1616.000,0.500,1464.000,1.000,426.000,5.000,0
"04/03/08","09:01:33",22011.000,"cc",28409.500,6.00,6,0.100,14921.000,0.200,3571.000,0.300,1617.000,0.500,1515.000,1.000,387.000,5.000,0
"04/03/08","09:01:39",22063.000,"cc",28335.180,6.00,6,0.100,14872.000,0.200,3568.000,0.300,1641.000,0.500,1571.000,1.000,411.000,5.000,0
"04/03/08","09:01:45",22131.000,"cc",28237.875,6.00,6,0.100,14989.000,0.200,3580.000,0.300,1600.000,0.500,1506.000,1.000,456.000,5.000,0
"04/03/08","09:01:51",21910.000,"cc",28392.816,6.00,6,0.100,14900.000,0.200,3484.000,0.300,1613.000,0.500,1483.000,1.000,430.000,5.000,0
"04/03/08","09:01:57",22211.000,"cc",28329.512,6.00,6,0.100,14780.000,0.200,3699.000,0.300,1712.000,0.500,1574.000,1.000,446.000,5.000,0
"04/03/08","09:02:03",22003.000,"cc",28280.162,6.00,6,0.100,14770.000,0.200,3582.000,0.300,1636.000,0.500,1541.000,1.000,474.000,5.000,0
"04/03/08","09:02:09",22351.000,"cc",28300.078,6.00,6,0.100,15161.000,0.200,3650.000,0.300,1555.000,0.500,1531.000,1.000,454.000,5.000,0
"04/03/08","09:02:15",22271.000,"cc",28287.008,6.00,6,0.100,15038.000,0.200,3657.000,0.300,1645.000,0.500,1502.000,1.000,429.000,5.000,0
"04/03/08","09:02:21",22424.000,"cc",28278.363,6.00,6,0.100,15169.000,0.200,3672.000,0.300,1554.000,0.500,1543.000,1.000,486.000,5.000,0
"04/03/08","09:02:27",22495.000,"cc",28411.404,6.00,6,0.100,15154.000,0.200,3675.000,0.300,1621.000,0.500,1592.000,1.000,453.000,5.000,0
"04/03/08","09:02:33",22148.000,"cc",28309.607,6.00,6,0.100,14898.000,0.200,3592.000,0.300,1619.000,0.500,1557.000,1.000,482.000,5.000,0
"04/03/08","09:02:39",20835.000,"cc",28255.096,6.00,6,0.100,14168.000,0.200,3301.000,0.300,1451.000,0.500,1475.000,1.000,440.000,5.000,0
"04/03/08","09:02:45",21117.000,"cc",28322.049,6.00,6,0.100,14586.000,0.200,3254.000,0.300,1474.000,0.500,1430.000,1.000,373.000,5.000,0
"04/03/08","09:02:51",20551.000,"cc",28353.008,6.00,6,0.100,14128.000,0.200,3237.000,0.300,1459.000,0.500,1357.000,1.000,370.000,5.000,0
"04/03/08","09:02:57",20550.000,"cc",28352.348,6.00,6,0.100,14002.000,0.200,3209.000,0.300,1497.000,0.500,1418.000,1.000,424.000,5.000,0
"04/03/08","09:03:03",19634.000,"cc",28250.262,6.00,6,0.100,13487.000,0.200,3101.000,0.300,1319.000,0.500,1351.000,1.000,376.000,5.000,0
"04/03/08","09:03:09",19023.000,"cc",28271.523,6.00,6,0.100,13035.000,0.200,2987.000,0.300,1353.000,0.500,1286.000,1.000,362.000,5.000,0
"04/03/08","09:03:15",18567.000,"cc",28333.770,6.00,6,0.100,12791.000,0.200,2901.000,0.300,1318.000,0.500,1187.000,1.000,370.000,5.000,0
"04/03/08","09:03:21",18383.000,"cc",28353.193,6.00,6,0.100,12657.000,0.200,2866.000,0.300,1307.000,0.500,1183.000,1.000,370.000,5.000,0
"04/03/08","09:03:27",17601.000,"cc",28319.772,6.00,6,0.100,12296.000,0.200,2640.000,0.300,1221.000,0.500,1105.000,1.000,339.000,5.000,0
"04/03/08","09:03:33",18062.000,"cc",28291.859,6.00,6,0.100,12495.000,0.200,2765.000,0.300,1229.000,0.500,1228.000,1.000,345.000,5.000,0
"04/03/08","09:03:39",17835.000,"cc",28285.215,6.00,6,0.100,12501.000,0.200,2652.000,0.300,1168.000,0.500,1186.000,1.000,328.000,5.000,0
"04/03/08","09:03:45",18248.000,"cc",28282.459,6.00,6,0.100,12729.000,0.200,2746.000,0.300,1252.000,0.500,1196.000,1.000,325.000,5.000,0
"04/03/08","09:03:51",18140.000,"cc",28250.408,6.00,6,0.100,12525.000,0.200,2820.000,0.300,1214.000,0.500,1207.000,1.000,374.000,5.000,0
"04/03/08","09:03:57",18280.000,"cc",28362.674,6.00,6,0.100,12795.000,0.200,2766.000,0.300,1211.000,0.500,1167.000,1.000,341.000,5.000,0
"04/03/08","09:04:03",18224.000,"cc",28294.311,6.00,6,0.100,12657.000,0.200,2763.000,0.300,1298.000,0.500,1174.000,1.000,332.000,5.000,0
"04/03/08","09:04:09",18153.000,"cc",28297.635,6.00,6,0.100,12582.000,0.200,2783.000,0.300,1243.000,0.500,1167.000,1.000,378.000,5.000,0
"04/03/08","09:04:15",18748.000,"cc",28380.723,6.00,6,0.100,12998.000,0.200,2846.000,0.300,1306.000,0.500,1254.000,1.000,344.000,5.000,0
"04/03/08","09:04:21",19757.000,"cc",28288.428,6.00,6,0.100,13683.000,0.200,2936.000,0.300,1453.000,0.500,1315.000,1.000,370.000,5.000,0
"04/03/08","09:04:27",19526.000,"cc",28221.430,6.00,6,0.100,13505.000,0.200,2972.000,0.300,1330.000,0.500,1312.000,1.000,407.000,5.000,0
"04/03/08","09:04:33",20283.000,"cc",28337.143,6.00,6,0.100,13902.000,0.200,3148.000,0.300,1425.000,0.500,1411.000,1.000,397.000,5.000,0
"04/03/08","09:04:39",20339.000,"cc",28278.662,6.00,6,0.100,13935.000,0.200,3106.000,0.300,1458.000,0.500,1420.000,1.000,420.000,5.000,0
"04/03/08","09:04:45",20427.000,"cc",28358.492,6.00,6,0.100,14037.000,0.200,3180.000,0.300,1438.000,0.500,1357.000,1.000,415.000,5.000,0
"04/03/08","09:04:51",20604.000,"cc",28345.152,6.00,6,0.100,13988.000,0.200,3237.000,0.300,1444.000,0.500,1502.000,1.000,433.000,5.000,0
"04/03/08","09:04:57",20483.000,"cc",28335.721,6.00,6,0.100,14000.000,0.200,3236.000,0.300,1433.000,0.500,1411.000,1.000,403.000,5.000,0
"04/03/08","09:05:03",20368.000,"cc",28314.059,6.00,6,0.100,13982.000,0.200,3175.000,0.300,1420.000,0.500,1383.000,1.000,408.000,5.000,0
"04/03/08","09:05:09",19087.000,"cc",28293.338,6.00,6,0.100,13175.000,0.200,2946.000,0.300,1278.000,0.500,1308.000,1.000,380.000,5.000,0
"04/03/08","09:05:15",18336.000,"cc",28314.059,6.00,6,0.100,12932.000,0.200,2747.000,0.300,1191.000,0.500,1130.000,1.000,336.000,5.000,0
"04/03/08","09:05:21",19345.000,"cc",28303.129,6.00,6,0.100,13351.000,0.200,2972.000,0.300,1358.000,0.500,1308.000,1.000,356.000,5.000,0
"04/03/08","09:05:27",19559.000,"cc",28273.123,6.00,6,0.100,13482.000,0.200,3053.000,0.300,1379.000,0.500,1263.000,1.000,382.000,5.000,0
"04/03/08","09:05:33",19793.000,"cc",28324.000,6.00,6,0.100,13561.000,0.200,3070.000,0.300,1453.000,0.500,1348.000,1.000,361.000,5.000,0
"04/03/08","09:05:39",19961.000,"cc",28342.719,6.00,6,0.100,13799.000,0.200,3097.000,0.300,1397.000,0.500,1295.000,1.000,373.000,5.000,0
"04/03/08","09:05:45",20116.000,"cc",28305.781,6.00,6,0.100,13783.000,0.200,3173.000,0.300,1403.000,0.500,1375.000,1.000,382.000,5.000,0
"04/03/08","09:05:51",20679.000,"cc",28304.010,6.00,6,0.100,14099.000,0.200,3205.000,0.300,1513.000,0.500,1467.000,1.000,395.000,5.000,0
"04/03/08","09:05:57",20645.000,"cc",28312.232,6.00,6,0.100,14193.000,0.200,3167.000,0.300,1469.000,0.500,1416.000,1.000,400.000,5.000,0
"04/03/08","09:06:03",20564.000,"cc",28313.199,6.00,6,0.100,14100.000,0.200,3105.000,0.300,1484.000,0.500,1437.000,1.000,438.000,5.000,0
"04/03/08","09:06:09",21089.000,"cc",28338.092,6.00,6,0.100,14481.000,0.200,3269.000,0.300,1495.000,0.500,1393.000,1.000,451.000,5.000,0
"04/03/08","09:06:15",21143.000,"cc",28298.754,6.00,6,0.100,14327.000,0.200,3300.000,0.300,1576.000,0.500,1490.000,1.000,450.000,5.000,0
"04/03/08","09:06:21",21380.000,"cc",28235.307,6.00,6,0.100,14606.000,0.200,3414.000,0.300,1484.000,0.500,1481.000,1.000,395.000,5.000,0
"04/03/08","09:06:27",21559.000,"cc",28343.760,6.00,6,0.100,14621.000,0.200,3387.000,0.300,1592.000,0.500,1524.000,1.000,435.000,5.000,0
"04/03/08","09:06:33",20724.000,"cc",28298.035,6.00,6,0.100,14139.000,0.200,3244.000,0.300,1499.000,0.500,1473.000,1.000,369.000,5.000,0
"04/03/08","09:06:39",20206.000,"cc",28351.363,6.00,6,0.100,13734.000,0.200,3266.000,0.300,1449.000,0.500,1401.000,1.000,356.000,5.000,0
"04/03/08","09:06:45",21324.000,"cc",28358.402,6.00,6,0.100,14376.000,0.200,3428.000,0.300,1615.000,0.500,1505.000,1.000,400.000,5.000,0
"04/03/08","09:06:51",21943.000,"cc",28344.361,6.00,6,0.100,14674.000,0.200,3593.000,0.300,1671.000,0.500,1560.000,1.000,445.000,5.000,0
"04/03/08","09:06:57",22180.000,"cc",28324.090,6.00,6,0.100,14849.000,0.200,3586.000,0.300,1650.000,0.500,1608.000,1.000,487.000,5.000,0
"04/03/08","09:07:03",22318.000,"cc",28261.607,6.00,6,0.100,14860.000,0.200,3625.000,0.300,1710.000,0.500,1646.000,1.000,477.000,5.000,0
"04/03/08","09:07:09",22620.000,"cc",28267.273,6.00,6,0.100,15031.000,0.200,3638.000,0.300,1750.000,0.500,1689.000,1.000,512.000,5.000,0
"04/03/08","09:07:15",22234.000,"cc",28301.354,6.00,6,0.100,14976.000,0.200,3531.000,0.300,1622.000,0.500,1605.000,1.000,500.000,5.000,0
"04/03/08","09:07:21",21726.000,"cc",28338.096,6.00,6,0.100,14565.000,0.200,3489.000,0.300,1671.000,0.500,1555.000,1.000,446.000,5.000,0
"04/03/08","09:07:27",20651.000,"cc",28356.910,6.00,6,0.100,14022.000,0.200,3231.000,0.300,1542.000,0.500,1421.000,1.000,435.000,5.000,0
"04/03/08","09:07:33",22716.000,"cc",28328.266,6.00,6,0.100,15881.000,0.200,3371.000,0.300,1513.000,0.500,1516.000,1.000,435.000,5.000,0
"04/03/08","09:07:39",24336.000,"cc",28268.199,6.00,6,0.100,17645.000,0.200,3382.000,0.300,1496.000,0.500,1401.000,1.000,412.000,5.000,0
"04/03/08","09:07:45",24172.000,"cc",28393.934,6.00,6,0.100,17386.000,0.200,3451.000,0.300,1463.000,0.500,1471.000,1.000,401.000,5.000,0
"04/03/08","09:07:51",41652.000,"cc",28357.402,6.00,6,0.100,33645.000,0.200,4580.000,0.300,1564.000,0.500,1460.000,1.000,403.000,5.000,0
"04/03/08","09:07:57",106956.000,"cc",28356.861,6.00,6,0.100,93714.000,0.200,9278.000,0.300,1940.000,0.500,1556.000,1.000,468.000,5.000,0
"04/03/08","09:08:03",114809.000,"cc",28267.963,6.00,6,0.100,100728.000,0.200,9854.000,0.300,1959.000,0.500,1764.000,1.000,504.000,5.000,0
"04/03/08","09:08:09",188051.000,"cc",28253.377,6.00,6,0.100,168769.000,0.200,15145.000,0.300,2100.000,0.500,1548.000,1.000,489.000,5.000,0
"04/03/08","09:08:15",155990.000,"cc",28308.404,6.00,6,0.100,139319.000,0.200,12686.000,0.300,2050.000,0.500,1511.000,1.000,424.000,5.000,0
"04/03/08","09:08:21",212632.000,"cc",28311.207,6.00,6,0.100,188238.000,0.200,20188.000,0.300,2225.000,0.500,1537.000,1.000,444.000,5.000,0
"04/03/08","09:08:27",346511.000,"cc",28316.191,6.00,6,0.100,307775.000,0.200,33939.000,0.300,2792.000,0.500,1533.000,1.000,472.000,5.000,0
"04/03/08","09:08:33",388602.000,"cc",28332.945,6.00,6,0.100,342445.000,0.200,40808.000,0.300,3220.000,0.500,1656.000,1.000,473.000,5.000,0
"04/03/08","09:08:39",184707.000,"cc",28329.039,6.00,6,0.100,126775.000,0.200,52128.000,0.300,3800.000,0.500,1599.000,1.000,405.000,5.000,0
"04/03/08","09:08:45",297394.000,"cc",28307.256,6.00,6,0.100,264168.000,0.200,28173.000,0.300,2894.000,0.500,1624.000,1.000,535.000,5.000,0
"04/03/08","09:08:51",310434.000,"cc",28304.461,6.00,6,0.100,273165.000,0.200,31809.000,0.300,3151.000,0.500,1762.000,1.000,547.000,5.000,0
"04/03/08","09:08:57",226853.000,"cc",28344.703,6.00,6,0.100,200225.000,0.200,22419.000,0.300,2352.000,0.500,1439.000,1.000,418.000,5.000,0
"04/03/08","09:09:03",211359.000,"cc",28294.539,6.00,6,0.100,157774.000,0.200,48035.000,0.300,3627.000,0.500,1511.000,1.000,412.000,5.000,0
"04/03/08","09:09:09",334396.000,"cc",28289.174,6.00,6,0.100,282660.000,0.200,46315.000,0.300,3480.000,0.500,1514.000,1.000,427.000,5.000,0
"04/03/08","09:09:15",271600.000,"cc",28291.297,6.00,6,0.100,217600.000,0.200,48681.000,0.300,3459.000,0.500,1472.000,1.000,388.000,5.000,0
"04/03/08","09:09:21",188111.000,"cc",28332.719,6.00,6,0.100,105444.000,0.200,75918.000,0.300,4730.000,0.500,1628.000,1.000,391.000,5.000,0
"04/03/08","09:09:27",261079.000,"cc",28390.252,6.00,6,0.100,196963.000,0.200,58151.000,0.300,3943.000,0.500,1580.000,1.000,442.000,5.000,0
"04/03/08","09:09:33",199359.000,"cc",28318.688,6.00,6,0.100,110631.000,0.200,81167.000,0.300,5296.000,0.500,1795.000,1.000,470.000,5.000,0
"04/03/08","09:09:39",239488.000,"cc",28283.941,6.00,6,0.100,191418.000,0.200,42906.000,0.300,3220.000,0.500,1491.000,1.000,453.000,5.000,0
"04/03/08","09:09:45",163431.000,"cc",28284.900,6.00,6,0.100,89960.000,0.200,67187.000,0.300,4403.000,0.500,1444.000,1.000,437.000,5.000,0
"04/03/08","09:09:51",290367.000,"cc",28292.768,6.00,6,0.100,215082.000,0.200,69077.000,0.300,4415.000,0.500,1414.000,1.000,379.000,5.000,0
"04/03/08","09:09:57",240612.000,"cc",28348.652,6.00,6,0.100,155527.000,0.200,78285.000,0.300,5026.000,0.500,1419.000,1.000,355.000,5.000,0
"04/03/08","09:10:03",356719.000,"cc",28349.117,6.00,6,0.100,301199.000,0.200,50370.000,0.300,3426.000,0.500,1350.000,1.000,374.000,5.000,0
"04/03/08","09:10:09",300919.000,"cc",28393.022,6.00,6,0.100,242695.000,0.200,52786.000,0.300,3616.000,0.500,1408.000,1.000,414.000,5.000,0
"04/03/08","09:10:15",157197.000,"cc",28274.955,6.00,6,0.100,86094.000,0.200,64975.000,0.300,4152.000,0.500,1530.000,1.000,446.000,5.000,0
"04/03/08","09:10:21",161157.000,"cc",28300.201,6.00,6,0.100,88638.000,0.200,66201.000,0.300,4313.000,0.500,1586.000,1.000,419.000,5.000,0
"04/03/08","09:10:27",180092.000,"cc",28295.264,6.00,6,0.100,102140.000,0.200,71524.000,0.300,4543.000,0.500,1480.000,1.000,405.000,5.000,0
"04/03/08","09:10:33",192255.000,"cc",28293.129,6.00,6,0.100,108367.000,0.200,77346.000,0.300,4721.000,0.500,1455.000,1.000,366.000,5.000,0
"04/03/08","09:10:39",313758.000,"cc",28289.682,6.00,6,0.100,254621.000,0.200,54024.000,0.300,3422.000,0.500,1332.000,1.000,359.000,5.000,0
"04/03/08","09:10:45",296639.000,"cc",28319.822,6.00,6,0.100,240993.000,0.200,50669.000,0.300,3214.000,0.500,1399.000,1.000,364.000,5.000,0
"04/03/08","09:10:51",188191.000,"cc",28309.383,6.00,6,0.100,128311.000,0.200,54506.000,0.300,3517.000,0.500,1434.000,1.000,423.000,5.000,0
"04/03/08","09:10:57",298438.000,"cc",28351.715,6.00,6,0.100,254067.000,0.200,39251.000,0.300,3169.000,0.500,1492.000,1.000,459.000,5.000,0
"04/03/08","09:11:03",365381.000,"cc",28342.928,6.00,6,0.100,320683.000,0.200,39672.000,0.300,3016.000,0.500,1563.000,1.000,447.000,5.000,0
"04/03/08","09:11:09",316524.000,"cc",28305.746,6.00,6,0.100,268556.000,0.200,42911.000,0.300,3121.000,0.500,1500.000,1.000,436.000,5.000,0
"04/03/08","09:11:15",332443.000,"cc",28317.330,6.00,6,0.100,281413.000,0.200,45801.000,0.300,3269.000,0.500,1554.000,1.000,406.000,5.000,0
"04/03/08","09:11:21",304663.000,"cc",28297.145,6.00,6,0.100,258540.000,0.200,41168.000,0.300,3075.000,0.500,1474.000,1.000,406.000,5.000,0
"04/03/08","09:11:27",296242.000,"cc",28304.262,6.00,6,0.100,260949.000,0.200,30908.000,0.300,2496.000,0.500,1480.000,1.000,409.000,5.000,0
"04/03/08","09:11:33",302526.000,"cc",28337.604,6.00,6,0.100,266602.000,0.200,31019.000,0.300,2794.000,0.500,1609.000,1.000,502.000,5.000,0
"04/03/08","09:11:39",272870.000,"cc",28304.178,6.00,6,0.100,217293.000,0.200,49698.000,0.300,3641.000,0.500,1718.000,1.000,520.000,5.000,0
"04/03/08","09:11:45",294839.000,"cc",28296.129,6.00,6,0.100,234037.000,0.200,55304.000,0.300,3595.000,0.500,1513.000,1.000,390.000,5.000,0
"04/03/08","09:11:51",265040.000,"cc",28411.453,6.00,6,0.100,198316.000,0.200,60879.000,0.300,3820.000,0.500,1584.000,1.000,441.000,5.000,0
"04/03/08","09:11:57",288567.000,"cc",28316.920,6.00,6,0.100,242214.000,0.200,41118.000,0.300,3120.000,0.500,1646.000,1.000,469.000,5.000,0
"04/03/08","09:12:03",343017.000,"cc",28277.129,6.00,6,0.100,289396.000,0.200,48181.000,0.300,3431.000,0.500,1537.000,1.000,472.000,5.000,0
"04/03/08","09:12:09",362595.000,"cc",28256.113,6.00,6,0.100,316762.000,0.200,40321.000,0.300,3279.000,0.500,1704.000,1.000,529.000,5.000,0
"04/03/08","09:12:15",359570.000,"cc",28301.543,6.00,6,0.100,314730.000,0.200,39563.000,0.300,3137.000,0.500,1666.000,1.000,474.000,5.000,0
"04/03/08","09:12:21",316763.000,"cc",28360.190,6.00,6,0.100,278844.000,0.200,33155.000,0.300,2755.000,0.500,1555.000,1.000,454.000,5.000,0
"04/03/08","09:12:27",223749.000,"cc",28266.746,6.00,6,0.100,198513.000,0.200,21366.000,0.300,2018.000,0.500,1436.000,1.000,416.000,5.000,0
"04/03/08","09:12:33",275663.000,"cc",28336.783,6.00,6,0.100,242493.000,0.200,28513.000,0.300,2574.000,0.500,1614.000,1.000,469.000,5.000,0
"04/03/08","09:12:39",294448.000,"cc",28368.873,6.00,6,0.100,259252.000,0.200,30057.000,0.300,2910.000,0.500,1709.000,1.000,520.000,5.000,0
"04/03/08","09:12:45",319476.000,"cc",28321.445,6.00,6,0.100,281034.000,0.200,33576.000,0.300,2735.000,0.500,1635.000,1.000,496.000,5.000,0
"04/03/08","09:12:51",315762.000,"cc",28344.760,6.00,6,0.100,277435.000,0.200,33643.000,0.300,2762.000,0.500,1514.000,1.000,408.000,5.000,0
"04/03/08","09:12:57",224097.000,"cc",28309.010,6.00,6,0.100,198142.000,0.200,21453.000,0.300,2430.000,0.500,1593.000,1.000,479.000,5.000,0
"04/03/08","09:13:03",250925.000,"cc",28332.010,6.00,6,0.100,220976.000,0.200,24940.000,0.300,2685.000,0.500,1803.000,1.000,521.000,5.000,0
"04/03/08","09:13:09",195082.000,"cc",28267.975,6.00,6,0.100,171698.000,0.200,18763.000,0.300,2340.000,0.500,1766.000,1.000,515.000,5.000,0
"04/03/08","09:13:15",252137.000,"cc",28292.225,6.00,6,0.100,222522.000,0.200,24847.000,0.300,2564.000,0.500,1715.000,1.000,489.000,5.000,0
"04/03/08","09:13:21",270269.000,"cc",28365.023,6.00,6,0.100,238043.000,0.200,27186.000,0.300,2728.000,0.500,1748.000,1.000,564.000,5.000,0
"04/03/08","09:13:27",270272.000,"cc",28287.244,6.00,6,0.100,238036.000,0.200,26866.000,0.300,2873.000,0.500,1927.000,1.000,570.000,5.000,0
"04/03/08","09:13:33",248478.000,"cc",28291.488,6.00,6,0.100,219049.000,0.200,24475.000,0.300,2639.000,0.500,1762.000,1.000,553.000,5.000,0
"04/03/08","09:13:39",351889.000,"cc",28339.951,6.00,6,0.100,307238.000,0.200,39538.000,0.300,2978.000,0.500,1655.000,1.000,480.000,5.000,0
"04/03/08","09:13:45",309941.000,"cc",28344.744,6.00,6,0.100,272964.000,0.200,32322.000,0.300,2705.000,0.500,1515.000,1.000,435.000,5.000,0
"04/03/08","09:13:51",335401.000,"cc",28221.000,6.00,6,0.100,283161.000,0.200,46489.000,0.300,3494.000,0.500,1767.000,1.000,490.000,5.000,0
"04/03/08","09:13:57",294543.000,"cc",28214.414,6.00,6,0.100,258878.000,0.200,30578.000,0.300,2845.000,0.500,1704.000,1.000,538.000,5.000,0
"04/03/08","09:14:03",321396.000,"cc",28368.318,6.00,6,0.100,282523.000,0.200,33703.000,0.300,2884.000,0.500,1789.000,1.000,497.000,5.000,0
"04/03/08","09:14:09",267088.000,"cc",28361.553,6.00,6,0.100,234978.000,0.200,27043.000,0.300,2701.000,0.500,1820.000,1.000,546.000,5.000,0
"04/03/08","09:14:15",388998.000,"cc",28329.941,6.00,6,0.100,337723.000,0.200,45373.000,0.300,3582.000,0.500,1767.000,1.000,553.000,5.000,0
"04/03/08","09:14:21",305197.000,"cc",28294.857,6.00,6,0.100,268265.000,0.200,31703.000,0.300,2917.000,0.500,1792.000,1.000,520.000,5.000,0
"04/03/08","09:14:27",235040.000,"cc",28313.100,6.00,6,0.100,207246.000,0.200,22879.000,0.300,2610.000,0.500,1764.000,1.000,541.000,5.000,0
"04/03/08","09:14:33",257232.000,"cc",28289.246,6.00,6,0.100,225239.000,0.200,26969.000,0.300,2707.000,0.500,1786.000,1.000,531.000,5.000,0
"04/03/08","09:14:39",342574.000,"cc",28341.002,6.00,6,0.100,288172.000,0.200,48394.000,0.300,3619.000,0.500,1860.000,1.000,529.000,5.000,0
"04/03/08","09:14:45",197650.000,"cc",28314.481,6.00,6,0.100,131135.000,0.200,59981.000,0.300,4131.000,0.500,1831.000,1.000,572.000,5.000,0
"04/03/08","09:14:51",155812.000,"cc",28295.785,6.00,6,0.100,83911.000,0.200,65657.000,0.300,4091.000,0.500,1690.000,1.000,463.000,5.000,0
"04/03/08","09:14:57",220448.000,"cc",28352.606,6.00,6,0.100,149312.000,0.200,64776.000,0.300,4110.000,0.500,1738.000,1.000,512.000,5.000,0
"04/03/08","09:15:03",299367.000,"cc",28339.977,6.00,6,0.100,237585.000,0.200,55739.000,0.300,3780.000,0.500,1776.000,1.000,487.000,5.000,0
"04/03/08","09:15:09",264544.000,"cc",28262.690,6.00,6,0.100,197908.000,0.200,60471.000,0.300,3842.000,0.500,1787.000,1.000,536.000,5.000,0
"04/03/08","09:15:15",289443.000,"cc",28346.109,6.00,6,0.100,245050.000,0.200,38974.000,0.300,3138.000,0.500,1764.000,1.000,517.000,5.000,0
"04/03/08","09:15:21",270544.000,"cc",28234.369,6.00,6,0.100,199619.000,0.200,64328.000,0.300,4238.000,0.500,1822.000,1.000,537.000,5.000,0
"04/03/08","09:15:27",222632.000,"cc",28300.414,6.00,6,0.100,162880.000,0.200,53885.000,0.300,3678.000,0.500,1706.000,1.000,483.000,5.000,0
"04/03/08","09:15:33",334006.000,"cc",28345.982,6.00,6,0.100,281725.000,0.200,47024.000,0.300,3238.000,0.500,1549.000,1.000,470.000,5.000,0
"04/03/08","09:15:39",154990.000,"cc",28357.234,6.00,6,0.100,79481.000,0.200,69173.000,0.300,4246.000,0.500,1621.000,1.000,469.000,5.000,0
"04/03/08","09:15:45",330228.000,"cc",28255.594,6.00,6,0.100,259614.000,0.200,64445.000,0.300,4036.000,0.500,1675.000,1.000,458.000,5.000,0
"04/03/08","09:15:51",320903.000,"cc",28322.529,6.00,6,0.100,272312.000,0.200,43316.000,0.300,3119.000,0.500,1664.000,1.000,492.000,5.000,0
"04/03/08","09:15:57",295366.000,"cc",28340.770,6.00,6,0.100,260921.000,0.200,29627.000,0.300,2624.000,0.500,1690.000,1.000,504.000,5.000,0
"04/03/08","09:16:03",208199.000,"cc",28376.430,6.00,6,0.100,184055.000,0.200,19498.000,0.300,2380.000,0.500,1742.000,1.000,524.000,5.000,0
"04/03/08","09:16:09",199870.000,"cc",28313.701,6.00,6,0.100,176585.000,0.200,18815.000,0.300,2315.000,0.500,1632.000,1.000,523.000,5.000,0